Location: *
(43.0409°N, 0.1694°E)
Time: 21:58:36
(UTC+00:00)

Cosmos 1386 Rocket - Pass Details

Date: 03 October 2023
Orbit: 929 x 1005 km, 83.0° (Epoch: 04 December)

Event Time Altitude Azimuth Distance (km) Brightness Sun altitude
Rises 04:17:52 0° 187° (S) 3,700 7.3 -19.1°
Reaches altitude 10° 04:20:23 10° 188° (S) 2,747 6.6 -18.6°
Maximum altitude 04:26:42 84° 276° (W) 991 4.4 -17.5°
Drops below altitude 10° 04:32:58 10° 7° (N) 2,716 7.0 -16.4°
Sets 04:35:27 0° 8° (N) 3,655 7.7 -15.9°
